[[{"header":{"parameterUnit":"m.s-1","parameterCategory":1,"la1":30.2991,"la2":30.254,"lo1":-89.0895,"lo2":-89.0444,"dy":0.0017,"dx":0.0017,"nx":28,"ny":28,"refTime":"2025-11-07T03:00:00:Z","depth":0,"parameterNumber":2,"parameterNumberName":"U-component_of_WINDS"},"data":[0,0,0,0,0,0,0,0,0,0,0,0,0,0,0,0,0,0,0,0,0,0,0,0,0,0,0,0,0,0,0,0,0,0,0,0,0,0,0,0,0,0,0,0,0,0,0,0,0,0,0,0,0,0,0,0,0,0,0.2788,0.279,0,0.2985,0.2987,0.2989,0.3072,0.3072,0.3071,0.3071,0.3276,0.3282,0.3288,0,0,0,0,0,0,0,0,0,0,0,0,0,0.2491,0.2496,0.2788,0.2791,0.2793,0.2984,0.2987,0.299,0.3072,0.3072,0.3071,0.3071,0.3274,0.3281,0.3288,0,0,0,0,0,0,0,0,0,0,0,0,0,0.2647,0.2498,0.2788,0.2857,0.2865,0.2984,0.2987,0.299,0.3072,0.3072,0.3071,0.307,0.3272,0.328,0.3289,0.3354,0,0,0.3316,0.3319,0,0,0,0,0,0,0,0,0.2638,0.2658,0.2845,0.2853,0.2862,0.3003,0.2958,0.3112,0.3072,0.2994,0.3071,0.307,0.3186,0.3202,0.324,0.3364,0.3373,0.3316,0.3322,0.3326,0.3328,0,0,0,0,0,0,0,0.2627,0.265,0.2866,0.2847,0.2858,0.2881,0.2902,0.2987,0.3091,0.3,0.3007,0.3029,0.3191,0.3231,0.3245,0.3376,0.3316,0.3324,0.3329,0.3333,0.3568,0.3569,0,0,0,0,0,0,0.2604,0.2641,0.286,0.2872,0.2746,0.2886,0.291,0.2958,0.309,0.3109,0.3029,0.3032,0.3217,0.3235,0.3253,0.3341,0.3325,0.3334,0.3339,0.3567,0.3568,0.3569,0,0,0,0,0,0,0.2598,0.2623,0.2852,0.2758,0.2789,0.2892,0.2945,0.2963,0.3003,0.3112,0.3131,0.3051,0.3217,0.3241,0.3329,0.3349,0.3338,0.3345,0.3565,0.3567,0.3568,0.3515,0,0,0,0,0,0,0.2589,0.262,0.2644,0.2758,0.2794,0.2922,0.2946,0.2967,0.3018,0.3023,0.3138,0.3156,0.3218,0.3316,0.3338,0.3361,0.3352,0.3564,0.3566,0.3568,0.3516,0.3515,0.3514,0,0,0,0,0,0.2578,0.2621,0.2645,0.2671,0.2825,0.2923,0.2944,0.3014,0.3019,0.3045,0.3116,0.3152,0.3343,0.3324,0.335,0.3376,0.3563,0.3566,0.3568,0.3516,0.3515,0.3514,0,0,0,0,0,0,0.2508,0.2637,0.2665,0.2746,0.2823,0.2937,0.2972,0.301,0.3088,0.309,0.3174,0.32,0.3282,0.3338,0.3314,0.3448,0.3457,0.3464,0.3408,0.3408,0.3407,0.3393,0.336,0,0,0,0,0,0.2502,0.2569,0.2679,0.274,0.2777,0.2868,0.2913,0.296,0.3044,0.3077,0.3154,0.3235,0.3314,0.3364,0.3442,0.3524,0.3552,0.3555,0.3554,0.3553,0.3559,0.361,0.3614,0.3576,0.3576,0.3576,0,0,0.249,0.2569,0.2606,0.2728,0.2793,0.2863,0.2895,0.2966,0.302,0.3089,0.3177,0.3237,0.3333,0.3419,0.3461,0.3469,0.3575,0.3556,0.3554,0.3561,0.3613,0.3616,0.3619,0.3578,0.3578,0.3577,0,0,0.2505,0.257,0.263,0.2695,0.2793,0.2854,0.2868,0.2977,0.3019,0.3109,0.3163,0.3229,0.3362,0.343,0.3481,0.3525,0.3563,0.3548,0.3544,0.3593,0.3596,0.3599,0.3618,0.3623,0.3553,0.3553,0.3553,0,0.2478,0.2584,0.2656,0.2726,0.278,0.2844,0.2908,0.2968,0.3087,0.3123,0.3129,0.33,0.3369,0.3474,0.3485,0.3523,0.3545,0.3536,0.3589,0.3593,0.3597,0.3616,0.3622,0.3551,0.3551,0.3552,0.3552,0,0.2548,0.2621,0.2658,0.2771,0.2829,0.2894,0.2979,0.303,0.3072,0.3133,0.3226,0.3312,0.341,0.3438,0.3481,0.355,0.3552,0.3572,0.3583,0.3597,0.3617,0.3624,0.3548,0.3549,0.3549,0.355,0,0,0.2523,0.2677,0.2689,0.2743,0.2858,0.2917,0.2987,0.3083,0.3126,0.3206,0.327,0.3382,0.3403,0.3461,0.3512,0.3555,0.3588,0.3571,0.3575,0.3573,0.3674,0.366,0.3666,0.3614,0.3615,0.3617,0.3667,0,0.2555,0.2682,0.2751,0.2851,0.2921,0.2985,0.3047,0.3126,0.3185,0.3255,0.3322,0.3401,0.342,0.3457,0.3502,0.3574,0.361,0.3571,0.3676,0.3679,0.3652,0.3676,0.366,0.3704,0.3675,0.3676,0.3677,0,0.2608,0.2689,0.2795,0.2905,0.2937,0.2991,0.3086,0.3152,0.3243,0.3284,0.3351,0.3402,0.3482,0.3485,0.3599,0.3571,0.3618,0.3661,0.3664,0.3678,0.368,0.3693,0.3719,0.3726,0.3689,0.3688,0.3687,0,0.2583,0.2717,0.2799,0.2843,0.2972,0.301,0.3066,0.3157,0.3211,0.3295,0.3332,0.3423,0.3474,0.3545,0.3621,0.3616,0.3728,0.3737,0.3766,0.3765,0.3788,0.3786,0.3824,0.3815,0.3814,0.3814,0.3814,0,0.2612,0.2675,0.279,0.284,0.2915,0.2994,0.3066,0.3128,0.3209,0.3275,0.3336,0.3397,0.3492,0.3566,0.3625,0.3712,0.3734,0.3771,0.3787,0.3767,0.3762,0.38,0.38,0.3816,0.3816,0.3815,0.3815,0,0.2595,0.2674,0.2769,0.2884,0.2915,0.2965,0.3065,0.3119,0.3182,0.3265,0.3289,0.3389,0.3479,0.3561,0.3681,0.3721,0.381,0.3828,0.3779,0.3788,0.3813,0.3811,0.3879,0.3893,0.3871,0.3871,0.3871,0,0.2609,0.266,0.2782,0.283,0.2885,0.2961,0.3018,0.3099,0.3156,0.3266,0.3307,0.3401,0.3481,0.3623,0.3707,0.38,0.3823,0.3841,0.3837,0.3817,0.3827,0.3824,0.3831,0.384,0.384,0.384,0.3839,0,0.2627,0.2665,0.2742,0.2835,0.2901,0.2977,0.3056,0.3093,0.319,0.3251,0.3344,0.3406,0.3529,0.3623,0.3726,0.3787,0.3831,0.384,0.3852,0.3833,0.3803,0.3823,0.3779,0.3838,0.3838,0.3838,0.3838,0.3838,0.2629,0.2678,0.2772,0.2858,0.2927,0.3,0.3057,0.3128,0.3206,0.3312,0.3356,0.3451,0.3546,0.3689,0.3749,0.3827,0.3835,0.3852,0.3857,0.386,0.3858,0.3789,0.3845,0.3845,0.3846,0.3846,0.3846,0,0.2652,0.2716,0.2795,0.2904,0.2972,0.3007,0.3097,0.3153,0.3235,0.3319,0.3397,0.3506,0.3599,0.3691,0.379,0.3834,0.3857,0.3857,0.3856,0.387,0.3843,0.3824,0.3838,0.3838,0.3838,0.3838,0.3837,0.3837,0.2672,0.2759,0.2808,0.293,0.2995,0.3088,0.3137,0.3207,0.3275,0.3393,0.347,0.353,0.3619,0.3724,0.3812,0.3837,0.3872,0.3867,0.3898,0.3872,0.3871,0.3871,0.3854,0.3873,0.3873,0.3919,0.392,0.392]},{"header":{"parameterUnit":"m.s-1","parameterCategory":1,"la1":30.2991,"la2":30.254,"lo1":-89.0895,"lo2":-89.0444,"dy":0.0017,"dx":0.0017,"nx":28,"ny":28,"refTime":"2025-11-07T03:00:00:Z","depth":0,"parameterNumber":3,"parameterNumberName":"V-component_of_WINDS"},"data":[0,0,0,0,0,0,0,0,0,0,0,0,0,0,0,0,0,0,0,0,0,0,0,0,0,0,0,0,0,0,0,0,0,0,0,0,0,0,0,0,0,0,0,0,0,0,0,0,0,0,0,0,0,0,0,0,0,0,3.863,3.863,0,3.868,3.8681,3.8681,3.8672,3.8671,3.867,3.8669,3.8715,3.8717,3.8719,0,0,0,0,0,0,0,0,0,0,0,0,0,3.852,3.8522,3.8629,3.863,3.8631,3.868,3.8681,3.8681,3.8672,3.8671,3.867,3.8669,3.8715,3.8717,3.872,0,0,0,0,0,0,0,0,0,0,0,0,0,3.8569,3.8523,3.8629,3.8632,3.8633,3.868,3.8681,3.8682,3.8672,3.8671,3.867,3.8669,3.8714,3.8717,3.872,3.8765,0,0,3.8729,3.8731,0,0,0,0,0,0,0,0,3.8566,3.8573,3.8631,3.8632,3.8633,3.8669,3.8659,3.8709,3.8673,3.8657,3.8669,3.8668,3.87,3.8705,3.8717,3.8767,3.8769,3.8729,3.8731,3.8733,3.8734,0,0,0,0,0,0,0,3.8563,3.8571,3.8649,3.8632,3.8633,3.863,3.8635,3.8669,3.8685,3.8659,3.8658,3.8664,3.8701,3.8714,3.8718,3.877,3.8729,3.8732,3.8734,3.8735,3.8863,3.8865,0,0,0,0,0,0,3.8559,3.8568,3.8648,3.8651,3.8596,3.8633,3.8639,3.8658,3.8685,3.8688,3.8666,3.8664,3.8709,3.8714,3.8719,3.8777,3.8733,3.8736,3.8737,3.8862,3.8864,3.8865,0,0,0,0,0,0,3.8557,3.8566,3.8646,3.8609,3.8619,3.8636,3.8658,3.866,3.8673,3.8691,3.8693,3.8676,3.8708,3.8715,3.8755,3.8778,3.8737,3.874,3.886,3.8862,3.8864,3.8891,0,0,0,0,0,0,3.8554,3.8566,3.8584,3.861,3.8621,3.8682,3.8659,3.8662,3.8679,3.8678,3.8701,3.8704,3.8708,3.8751,3.8758,3.8782,3.8742,3.8858,3.8861,3.8864,3.8888,3.8894,3.8899,0,0,0,0,0,3.855,3.8587,3.8585,3.8595,3.8645,3.8683,3.869,3.8695,3.8681,3.87,3.8711,3.8703,3.8774,3.8755,3.8763,3.8788,3.8856,3.886,3.8863,3.8886,3.8893,3.8899,0,0,0,0,0,0,3.8561,3.8591,3.8588,3.8636,3.8658,3.8682,3.8705,3.8702,3.8726,3.8724,3.8728,3.8733,3.8775,3.8784,3.8762,3.8835,3.8813,3.8818,3.8827,3.8834,3.8839,3.8837,3.8745,0,0,0,0,0,3.8569,3.86,3.8623,3.8663,3.8674,3.8688,3.8704,3.8707,3.8729,3.8738,3.8752,3.8772,3.8799,3.8816,3.8842,3.8889,3.8895,3.891,3.8915,3.892,3.8925,3.8953,3.8961,3.8877,3.8877,3.8877,0,0,3.8586,3.8606,3.8624,3.8665,3.8683,3.8714,3.8695,3.8728,3.8751,3.8742,3.8782,3.8793,3.8815,3.886,3.888,3.887,3.8949,3.8924,3.8928,3.8931,3.8958,3.8966,3.8973,3.8879,3.8879,3.8878,0,0,3.8633,3.865,3.8687,3.8706,3.8733,3.8742,3.8751,3.8776,3.8785,3.8825,3.882,3.8846,3.8892,3.891,3.8924,3.898,3.8975,3.8988,3.9017,3.9044,3.9051,3.9057,3.908,3.9087,3.8993,3.8993,3.8993,0,3.865,3.8698,3.8705,3.874,3.8759,3.8755,3.8792,3.8808,3.8842,3.8854,3.8842,3.8902,3.8917,3.8967,3.8981,3.8992,3.9003,3.8986,3.905,3.9056,3.9061,3.9083,3.9091,3.8994,3.8994,3.8994,3.8994,0,3.8719,3.8752,3.8778,3.8815,3.8836,3.8871,3.8883,3.8903,3.8904,3.8915,3.8957,3.8974,3.9005,3.9016,3.9016,3.9067,3.906,3.9049,3.9028,3.9071,3.9092,3.91,3.8997,3.8996,3.8996,3.8995,0,0,3.8774,3.8816,3.8826,3.8844,3.8874,3.89,3.8935,3.8968,3.8986,3.9009,3.9039,3.9079,3.907,3.9087,3.9089,3.9112,3.9159,3.9098,3.9099,3.9112,3.9219,3.923,3.9239,3.9155,3.9157,3.9158,3.9219,0,3.8826,3.8892,3.8901,3.8958,3.899,3.8988,3.9018,3.904,3.9051,3.9078,3.9089,3.9119,3.9103,3.9114,3.9137,3.9149,3.9181,3.9144,3.9184,3.9185,3.9182,3.925,3.926,3.9317,3.9226,3.9228,3.9228,0,3.8896,3.8925,3.8988,3.9017,3.9031,3.9059,3.9091,3.9117,3.9142,3.9148,3.9168,3.9168,3.9204,3.918,3.923,3.9205,3.9221,3.9229,3.9232,3.9238,3.9211,3.926,3.9335,3.9344,3.9241,3.924,3.9239,0,3.8934,3.8988,3.9034,3.9048,3.9083,3.9103,3.9118,3.9142,3.9162,3.9189,3.9202,3.9231,3.9248,3.927,3.9278,3.9259,3.9329,3.9305,3.9335,3.9336,3.9352,3.9351,3.9433,3.9358,3.9358,3.9358,3.9357,0,3.8993,3.9032,3.9052,3.908,3.9123,3.9132,3.9174,3.9188,3.9209,3.9239,3.9236,3.9264,3.9271,3.93,3.9305,3.9348,3.9354,3.936,3.9362,3.9363,3.9362,3.9375,3.9373,3.936,3.9359,3.9359,3.9359,0,3.9043,3.9058,3.9108,3.9138,3.9146,3.9178,3.9202,3.9229,3.924,3.9278,3.9287,3.9304,3.9338,3.9347,3.9387,3.939,3.9442,3.9437,3.9435,3.9435,3.9467,3.9465,3.9562,3.9576,3.9489,3.949,3.949,0,3.9081,3.9112,3.9147,3.9168,3.9185,3.9219,3.9241,3.925,3.9272,3.9304,3.9327,3.9362,3.939,3.9445,3.9459,3.949,3.9489,3.9521,3.9493,3.9494,3.9493,3.9493,3.9497,3.9527,3.9528,3.9528,3.9529,0,3.9149,3.9155,3.9188,3.9224,3.9251,3.9279,3.9305,3.9322,3.9335,3.936,3.9397,3.942,3.9462,3.9497,3.9529,3.9542,3.9539,3.9537,3.9547,3.9549,3.9547,3.9552,3.9452,3.9535,3.9535,3.9534,3.9534,3.9534,3.9196,3.9224,3.9255,3.9292,3.9314,3.9339,3.9368,3.9383,3.9415,3.9453,3.9455,3.9496,3.9521,3.9564,3.9579,3.961,3.9601,3.9613,3.9617,3.9621,3.9626,3.954,3.9615,3.9615,3.9615,3.9615,3.9615,0,3.9266,3.9286,3.932,3.936,3.9389,3.9385,3.9415,3.9439,3.9476,3.9501,3.953,3.9573,3.9607,3.9625,3.9659,3.9681,3.968,3.969,3.969,3.9693,3.963,3.9621,3.969,3.969,3.969,3.969,3.969,3.969,3.9306,3.9355,3.9366,3.9426,3.9444,3.9487,3.9505,3.9528,3.9549,3.9599,3.9629,3.9641,3.9663,3.9699,3.9731,3.9735,3.9749,3.976,3.9764,3.9705,3.9697,3.969,3.9681,3.9762,3.9762,3.9824,3.9825,3.9825]}]]